{"data":{"norad_id":49256,"epoch":"2026-05-25T04:09:28.260000Z","epoch_age_seconds":56028,"freshness":"FRESH","line1":"1 49256U 21086A   26145.17324375  .00004009  00000+0  24514-3 0  9994","line2":"2 49256  97.6443 267.9271 0032651 221.4086 138.4668 15.10395240257241","mean_motion":15.1039524,"eccentricity":0.0032651,"inclination_deg":97.6443,"raan_deg":267.9271,"arg_perigee_deg":221.4086,"mean_anomaly_deg":138.4668,"bstar":0.00024514,"rev_number":25724,"period_min":95.339283510984,"perigee_km":512.42165888779,"apogee_km":557.56578512865,"semimajor_km":6913.1307220082,"source":"CELESTRAK","updated_at":"2026-05-25T13:37:57.136449Z"}}